Location: Iroquois Falls
(48.7680°N, 80.6732°W)
Time: 06:08:39
(UTC-05:00)

ISS - Visible Passes

Search period start: 23 November 2017 00:00
Search period end: 03 December 2017 00:00
Orbit: 402 x 407 km, 51.6° (Epoch: 23 November)

Date Brightness Start Highest point End Pass type
(mag) Time Alt. Az. Time Alt. Az. Time Alt. Az.
27 Nov -0.8 19:18:12 10° SW 19:18:37 13° SW 19:18:37 13° SW visible
28 Nov -2.3 18:26:19 10° SSW 18:28:36 24° SSE 18:28:36 24° SSE visible
29 Nov -1.7 17:34:51 10° S 17:36:56 16° SE 17:38:30 12° ESE visible
29 Nov -1.6 19:09:42 10° WSW 19:11:10 24° WSW 19:11:10 24° WSW visible
30 Nov -3.5 18:17:30 10° SW 18:20:40 48° SSE 18:21:00 45° SE visible
01 Dec -2.6 17:25:28 10° SSW 17:28:24 30° SE 17:30:46 13° E visible
01 Dec -2.1 19:01:25 10° WSW 19:03:25 34° W 19:03:25 34° W visible
02 Dec -3.9 18:09:00 10° WSW 18:12:17 84° SSE 18:13:09 46° ENE visible
02 Dec -0.2 19:45:44 10° W 19:45:47 10° W 19:45:47 10° W visible
